Weather History for KCQC - December, 2012

Change the Weather History Date:

Monday, December 10, 2012

  Actual Average (KSAF) Record (KSAF)
Temperature  
Mean Temperature 12 °F -  
Max Temperature 25 °F 57 °F 60 °F (1977)
Min Temperature -2 °F 18 °F -2 °F (2012)
Degree Days  
Heating Degree Days 54    
Moisture  
Dew Point 1 °F    
Average Humidity 67    
Maximum Humidity 85    
Minimum Humidity 45    
Precipitation  
Precipitation 0.07 in - - ()
Sea Level Pressure  
Sea Level Pressure 30.05 in    
Wind  
Wind Speed 15 mph (WNW)    
Max Wind Speed 37 mph    
Max Gust Speed 44 mph    
Visibility 4 miles    
Events Fog , Snow    
Averages and records for this station are not official NWS values.
T = Trace of Precipitation, MM = Missing Value Source: NWS Daily Summary

Daily Weather History Graph

Daily Weather History Graph

Search for Another Location

Airport or City:

Trip Planner

Search our weather history database for the weather conditions in past years. The results will help you decide how hot, cold, wet, or windy it might be!

Date:

Astronomy

Dec. 10, 2012 Rise Set
Actual Time 7:00 AM MST 4:51 PM MST
Civil Twilight 6:32 AM MST 5:19 PM MST
Nautical Twilight 6:00 AM MST 5:50 PM MST
Astronomical Twilight 5:29 AM MST 6:21 PM MST
Moon 3:51 AM MST (12/10) 2:39 PM MST (12/10)
Length of Visible Light 10h 47m
Length of Day
9h 51m
Waning Crescent, 10% of the Moon is Illuminated
Dec 10
Waning Crescent
Dec 13
New
Dec 19
First Quarter
Dec 28
Full
Jan 4
Last Quarter

Hourly Weather History & Observations

Time (MST) Temp. Windchill Dew Point Humidity Pressure Visibility Wind Dir Wind Speed Gust Speed Precip Events Conditions
12:22 AM 3.2 °F - -2.2 °F 78% 30.07 in 0.5 mi Calm Calm - N/A   Haze
12:35 AM 1.4 °F - -2.2 °F 85% 30.07 in 0.2 mi Calm Calm - N/A Fog Light Freezing Fog
12:53 AM 3.0 °F -4.4 °F -0.9 °F 84% 30.22 in 0.5 mi SSE 3.5 mph - N/A Fog Light Freezing Fog
1:16 AM 1.4 °F -6.2 °F -2.2 °F 85% 30.04 in 0.2 mi SSW 3.5 mph - N/A Fog Light Freezing Fog
1:53 AM 1.0 °F -10.3 °F -2.9 °F 83% 30.21 in 0.2 mi West 5.8 mph - N/A Fog Light Freezing Fog
2:06 AM -0.4 °F -14.7 °F -5.8 °F 78% 30.02 in 1.0 mi West 8.1 mph - N/A   Haze
2:09 AM -0.4 °F -13.4 °F -5.8 °F 78% 30.02 in 3.0 mi West 6.9 mph - N/A   Haze
2:15 AM 3.2 °F -10.3 °F -0.4 °F 85% 30.01 in 1.2 mi West 8.1 mph - N/A   Mostly Cloudy
2:22 AM 5.0 °F -6.9 °F 1.4 °F 85% 30.01 in 0.2 mi West 6.9 mph - N/A Fog Light Freezing Fog
2:53 AM 1.0 °F -11.7 °F -4.0 °F 79% 30.20 in 0.2 mi West 6.9 mph - N/A   Haze
3:01 AM -0.4 °F -13.4 °F -5.8 °F 78% 30.00 in 0.5 mi West 6.9 mph - N/A   Haze
3:15 AM -0.4 °F -15.7 °F -7.6 °F 72% 29.99 in 1.2 mi West 9.2 mph - N/A   Haze
3:26 AM -0.4 °F -14.7 °F -7.6 °F 72% 29.99 in 0.5 mi West 8.1 mph - N/A   Haze
3:40 AM -2.2 °F -18.0 °F -7.6 °F 78% 29.98 in 2.0 mi West 9.2 mph - N/A   Haze
3:50 AM -0.4 °F -18.4 °F -7.6 °F 72% 29.97 in 0.8 mi West 12.7 mph - N/A   Haze
3:53 AM -0.9 °F -18.3 °F -6.0 °F 79% 30.18 in 0.8 mi West 11.5 mph - N/A   Haze
4:15 AM 3.2 °F -15.9 °F -2.2 °F 78% 29.96 in 2.0 mi West 16.1 mph - 0.00 in Snow Light Snow
4:22 AM 3.2 °F -15.9 °F -2.2 °F 78% 29.96 in 9.0 mi West 16.1 mph - 0.00 in   Scattered Clouds
4:53 AM 5.0 °F -16.2 °F -0.9 °F 76% - 7.0 mi West 21.9 mph - 0.00 in   Clear
5:27 AM 5.0 °F -17.9 °F -0.4 °F 78% 29.92 in 2.5 mi WNW 26.5 mph - 0.00 in Snow Blowing Snow
5:34 AM 5.0 °F -17.9 °F -0.4 °F 78% 29.93 in 4.0 mi WNW 26.5 mph - 0.00 in Snow Blowing Snow
5:50 AM 6.8 °F -16.2 °F -0.4 °F 72% 29.93 in 2.0 mi WNW 28.8 mph - 0.00 in Snow Blowing Snow
5:53 AM 6.1 °F -17.2 °F -0.0 °F 76% 30.14 in 1.8 mi WNW 28.8 mph - 0.00 in Snow Blowing Snow
6:36 AM 5.0 °F -19.0 °F -0.4 °F 78% 29.94 in 2.0 mi WNW 29.9 mph - 0.00 in Snow Blowing Snow
6:53 AM 6.1 °F -17.9 °F -0.9 °F 73% 30.17 in 2.5 mi WNW 31.1 mph - 0.00 in Snow Blowing Snow
7:06 AM 6.8 °F -17.6 °F -0.4 °F 72% - 1.2 mi WNW 33.4 mph 40.3 mph 0.00 in   Clear
7:19 AM 8.6 °F -15.4 °F -0.4 °F 67% 29.95 in 0.8 mi WNW 34.5 mph - 0.00 in   Clear
7:33 AM 8.6 °F -15.1 °F -0.4 °F 67% 29.95 in 1.2 mi WNW 33.4 mph 40.3 mph 0.00 in   Clear
7:53 AM 8.1 °F -16.2 °F -0.0 °F 70% 30.17 in 1.2 mi NW 34.5 mph 41.4 mph 0.00 in   Clear
8:19 AM 8.6 °F -14.1 °F -0.4 °F 67% 29.97 in 3.0 mi WNW 29.9 mph 36.8 mph 0.01 in Snow Blowing Snow
8:28 AM 8.6 °F -14.8 °F -0.4 °F 67% 29.98 in 2.5 mi WNW 32.2 mph - 0.01 in Snow Blowing Snow
8:53 AM 10.0 °F -12.5 °F 1.0 °F 67% 30.20 in 1.8 mi WNW 31.1 mph - 0.01 in Snow Blowing Snow
9:04 AM 10.4 °F -11.4 °F 1.4 °F 67% 29.98 in 3.0 mi NW 28.8 mph 35.7 mph N/A Snow Blowing Snow
9:15 AM 12.2 °F -8.6 °F 1.4 °F 62% 29.98 in 2.0 mi NW 27.6 mph 36.8 mph N/A Snow Blowing Snow
9:26 AM 12.2 °F -8.2 °F 1.4 °F 62% 29.99 in 5.0 mi WNW 26.5 mph 33.4 mph N/A Snow Blowing Snow
9:53 AM 14.0 °F -6.5 °F 3.0 °F 62% 30.18 in 3.0 mi WNW 28.8 mph 38.0 mph N/A Snow Blowing Snow
10:29 AM 15.8 °F -4.7 °F 3.2 °F 58% 29.99 in 2.5 mi WNW 31.1 mph 38.0 mph N/A Snow Blowing Snow
10:44 AM 17.6 °F -1.9 °F 5.0 °F 58% 29.99 in 5.0 mi WNW 29.9 mph - N/A Snow Blowing Snow
10:53 AM 17.1 °F -3.5 °F 5.0 °F 59% 30.18 in 1.8 mi NW 33.4 mph 40.3 mph N/A Snow Blowing Snow
11:20 AM 17.6 °F -3.6 °F 3.2 °F 53% 29.96 in 0.5 mi NW 36.8 mph 43.7 mph N/A Snow Blowing Snow
11:27 AM 17.6 °F -3.6 °F 3.2 °F 53% 29.96 in 0.2 mi NW 36.8 mph 43.7 mph 0.05 in Snow Blowing Snow
11:37 AM 19.4 °F -0.6 °F 3.2 °F 49% 29.96 in 0.5 mi NW 34.5 mph 43.7 mph 0.05 in Snow Blowing Snow
11:53 AM 19.9 °F 1.3 °F 3.9 °F 50% 30.18 in 1.2 mi NW 29.9 mph 40.3 mph 0.05 in Snow Blowing Snow
11:58 AM 19.4 °F 0.8 °F 5.0 °F 54% 29.96 in 3.0 mi WNW 28.8 mph 38.0 mph N/A Snow Blowing Snow
12:30 PM 21.2 °F 2.4 °F 6.8 °F 54% 29.92 in 1.8 mi NW 32.2 mph 39.1 mph N/A Snow Blowing Snow
12:42 PM 21.2 °F 3.3 °F 6.8 °F 54% 29.93 in 3.0 mi WNW 28.8 mph 39.1 mph N/A Snow Blowing Snow
12:53 PM 21.9 °F 5.1 °F 6.1 °F 51% 30.13 in 10.0 mi WNW 25.3 mph 36.8 mph N/A   Clear
1:53 PM 24.1 °F 9.0 °F 6.1 °F 46% 30.13 in 10.0 mi NW 21.9 mph 29.9 mph N/A   Clear
2:53 PM 25.0 °F 10.2 °F 6.1 °F 45% 30.10 in 10.0 mi WNW 21.9 mph - N/A   Clear
3:53 PM 25.0 °F 11.7 °F 7.0 °F 46% 30.12 in 10.0 mi NW 17.3 mph - N/A   Clear
4:53 PM 23.0 °F 10.6 °F 7.0 °F 50% 30.11 in 10.0 mi West 13.8 mph - N/A   Clear
5:53 PM 19.0 °F 5.0 °F 7.0 °F 59% 30.13 in 10.0 mi WNW 15.0 mph - N/A   Clear
6:53 PM 21.0 °F 7.1 °F 9.0 °F 60% 30.12 in 10.0 mi WNW 16.1 mph - N/A   Partly Cloudy
7:53 PM 19.0 °F 7.5 °F 8.1 °F 62% 30.13 in 10.0 mi NW 10.4 mph - N/A   Mostly Cloudy
8:53 PM 17.1 °F 6.6 °F 5.0 °F 59% 30.16 in 10.0 mi NNW 8.1 mph - N/A   Clear
9:53 PM 14.0 °F 1.2 °F 3.0 °F 62% 30.16 in 10.0 mi WNW 10.4 mph - N/A   Clear
10:53 PM 12.9 °F 0.7 °F 1.9 °F 62% 30.14 in 10.0 mi WNW 9.2 mph - 0.01 in   Clear
11:53 PM 12.9 °F -3.4 °F 1.9 °F 62% 30.10 in 10.0 mi West 16.1 mph - N/A   Clear